Time,TemperatureF,DewpointF,PressureIn,WindDirection,WindDirectionDegrees,WindSpeedMPH,WindSpeedGustMPH,Humidity,HourlyPrecipIn,Conditions,Clouds,dailyrainin,SolarRadiationWatts/m^2,SoftwareType,DateUTC
2013-06-19 00:00:00,64.4,63.0,29.96,SW,219,0.0,2.0,95,0.15,,,0.32,0,weatherlink.com 1.10,2013-06-19 04:00:00,
2013-06-19 00:15:00,64.4,63.0,29.97,SW,219,0.0,1.0,95,0.05,,,0.33,0,weatherlink.com 1.10,2013-06-19 04:15:00,
2013-06-19 00:31:00,64.3,63.0,29.98,West,267,0.0,5.0,95,0.02,,,0.33,0,weatherlink.com 1.10,2013-06-19 04:31:00,
2013-06-19 00:46:00,64.2,63.0,29.98,SW,234,0.0,4.0,95,0.02,,,0.33,0,weatherlink.com 1.10,2013-06-19 04:46:00,
2013-06-19 01:01:00,64.2,63.0,29.97,SW,234,0.0,0.0,95,0.01,,,0.33,0,weatherlink.com 1.10,2013-06-19 05:01:00,
2013-06-19 01:16:00,64.1,63.0,29.96,SW,234,0.0,1.0,95,0.00,,,0.33,0,weatherlink.com 1.10,2013-06-19 05:16:00,
2013-06-19 01:31:00,64.2,63.0,29.96,SW,234,0.0,0.0,95,0.00,,,0.33,0,weatherlink.com 1.10,2013-06-19 05:31:00,
2013-06-19 01:46:00,64.2,63.0,29.95,SW,234,0.0,0.0,95,0.00,,,0.33,0,weatherlink.com 1.10,2013-06-19 05:46:00,
2013-06-19 02:01:00,64.1,63.0,29.95,SW,234,0.0,0.0,95,0.00,,,0.33,0,weatherlink.com 1.10,2013-06-19 06:01:00,
2013-06-19 02:16:00,64.1,63.0,29.95,SW,224,0.0,2.0,95,0.00,,,0.33,0,weatherlink.com 1.10,2013-06-19 06:16:00,
2013-06-19 02:31:00,64.1,63.0,29.96,SW,224,0.0,0.0,95,0.00,,,0.33,0,weatherlink.com 1.10,2013-06-19 06:31:00,
2013-06-19 02:46:00,64.1,63.0,29.96,SW,224,0.0,0.0,95,0.00,,,0.33,0,weatherlink.com 1.10,2013-06-19 06:46:00,
2013-06-19 03:01:00,64.1,63.0,29.97,SW,224,0.0,0.0,95,0.00,,,0.33,0,weatherlink.com 1.10,2013-06-19 07:01:00,
2013-06-19 03:16:00,64.0,63.0,29.98,SW,224,0.0,0.0,95,0.00,,,0.33,0,weatherlink.com 1.10,2013-06-19 07:16:00,
2013-06-19 03:31:00,63.7,62.0,29.98,SW,224,0.0,0.0,95,0.00,,,0.33,0,weatherlink.com 1.10,2013-06-19 07:31:00,
2013-06-19 03:46:00,63.5,62.0,29.98,SW,224,0.0,0.0,95,0.00,,,0.33,0,weatherlink.com 1.10,2013-06-19 07:46:00,
2013-06-19 04:01:00,63.2,62.0,29.98,SW,224,0.0,0.0,95,0.00,,,0.33,0,weatherlink.com 1.10,2013-06-19 08:01:00,
2013-06-19 04:16:00,63.1,62.0,29.98,SW,224,0.0,0.0,95,0.00,,,0.33,0,weatherlink.com 1.10,2013-06-19 08:16:00,
2013-06-19 04:31:00,63.0,62.0,29.98,SW,224,0.0,0.0,95,0.00,,,0.33,0,weatherlink.com 1.10,2013-06-19 08:31:00,
2013-06-19 04:46:00,62.6,61.0,29.98,SW,224,0.0,0.0,95,0.00,,,0.33,0,weatherlink.com 1.10,2013-06-19 08:46:00,
2013-06-19 05:01:00,62.3,61.0,29.99,SW,224,0.0,0.0,95,0.00,,,0.33,0,weatherlink.com 1.10,2013-06-19 09:01:00,
2013-06-19 05:16:00,62.1,61.0,29.99,SW,224,0.0,0.0,95,0.00,,,0.33,0,weatherlink.com 1.10,2013-06-19 09:16:00,
2013-06-19 05:31:00,61.7,60.0,30.00,SW,224,0.0,0.0,95,0.00,,,0.33,0,weatherlink.com 1.10,2013-06-19 09:31:00,
2013-06-19 05:46:00,61.4,60.0,30.00,SW,224,0.0,0.0,95,0.00,,,0.33,0,weatherlink.com 1.10,2013-06-19 09:46:00,
2013-06-19 06:01:00,61.1,60.0,30.01,SW,224,0.0,0.0,95,0.00,,,0.33,0,weatherlink.com 1.10,2013-06-19 10:01:00,
2013-06-19 06:16:00,61.0,60.0,30.01,SW,224,0.0,0.0,95,0.00,,,0.33,0,weatherlink.com 1.10,2013-06-19 10:16:00,
2013-06-19 06:31:00,60.8,59.0,30.02,SW,224,0.0,0.0,95,0.00,,,0.33,7,weatherlink.com 1.10,2013-06-19 10:31:00,
2013-06-19 06:46:00,60.6,59.0,30.02,SW,224,0.0,0.0,95,0.00,,,0.33,16,weatherlink.com 1.10,2013-06-19 10:46:00,
2013-06-19 07:01:00,60.5,59.0,30.02,SW,224,0.0,0.0,95,0.00,,,0.33,28,weatherlink.com 1.10,2013-06-19 11:01:00,
2013-06-19 07:16:00,60.7,60.0,30.03,SW,224,0.0,0.0,96,0.00,,,0.33,35,weatherlink.com 1.10,2013-06-19 11:16:00,
2013-06-19 07:31:00,60.9,60.0,30.03,WNW,282,0.0,2.0,96,0.00,,,0.33,47,weatherlink.com 1.10,2013-06-19 11:31:00,
2013-06-19 07:46:00,61.1,60.0,30.03,WNW,282,0.0,0.0,96,0.00,,,0.33,54,weatherlink.com 1.10,2013-06-19 11:46:00,
2013-06-19 08:01:00,61.3,60.0,30.04,WNW,284,0.0,2.0,96,0.00,,,0.33,63,weatherlink.com 1.10,2013-06-19 12:01:00,
2013-06-19 08:16:00,61.5,60.0,30.04,WNW,284,0.0,1.0,96,0.00,,,0.33,74,weatherlink.com 1.10,2013-06-19 12:16:00,
2013-06-19 08:31:00,61.9,61.0,30.05,WNW,284,0.0,1.0,96,0.00,,,0.33,121,weatherlink.com 1.10,2013-06-19 12:31:00,
2013-06-19 08:46:00,62.2,61.0,30.05,SSE,147,0.0,1.0,96,0.00,,,0.33,285,weatherlink.com 1.10,2013-06-19 12:46:00,
2013-06-19 09:01:00,63.2,62.0,30.06,WSW,252,0.0,2.0,96,0.00,,,0.33,336,weatherlink.com 1.10,2013-06-19 13:01:00,
2013-06-19 09:16:00,64.0,63.0,30.06,ENE,57,0.0,1.0,96,0.00,,,0.33,394,weatherlink.com 1.10,2013-06-19 13:16:00,
2013-06-19 09:31:00,64.9,64.0,30.07,SSE,165,4.0,7.0,95,0.00,,,0.33,478,weatherlink.com 1.10,2013-06-19 13:31:00,
2013-06-19 09:46:00,65.7,63.0,30.07,WNW,294,0.0,4.0,92,0.00,,,0.33,504,weatherlink.com 1.10,2013-06-19 13:46:00,
2013-06-19 10:01:00,67.0,63.0,30.07,SSW,202,0.0,2.0,88,0.00,,,0.33,568,weatherlink.com 1.10,2013-06-19 14:01:00,
2013-06-19 10:16:00,68.1,63.0,30.07,WNW,289,1.0,5.0,84,0.00,,,0.33,613,weatherlink.com 1.10,2013-06-19 14:16:00,
2013-06-19 10:31:00,68.9,64.0,30.07,NNE,13,0.0,6.0,84,0.00,,,0.33,656,weatherlink.com 1.10,2013-06-19 14:31:00,
2013-06-19 10:46:00,70.3,65.0,30.07,NNW,333,0.0,5.0,82,0.00,,,0.33,693,weatherlink.com 1.10,2013-06-19 14:46:00,
2013-06-19 11:01:00,71.3,66.0,30.07,NNE,24,0.0,5.0,82,0.00,,,0.33,726,weatherlink.com 1.10,2013-06-19 15:01:00,
2013-06-19 11:16:00,72.0,65.0,30.07,SSW,196,0.0,5.0,79,0.00,,,0.33,775,weatherlink.com 1.10,2013-06-19 15:16:00,
2013-06-19 11:31:00,72.6,65.0,30.07,NW,325,0.0,7.0,77,0.00,,,0.33,809,weatherlink.com 1.10,2013-06-19 15:31:00,
2013-06-19 11:46:00,73.5,64.0,30.08,NNW,330,2.0,4.0,73,0.00,,,0.33,846,weatherlink.com 1.10,2013-06-19 15:46:00,
2013-06-19 12:01:00,74.0,64.0,30.08,WNW,287,1.0,6.0,70,0.00,,,0.33,867,weatherlink.com 1.10,2013-06-19 16:01:00,
2013-06-19 12:16:00,74.8,64.0,30.08,ESE,113,0.0,4.0,70,0.00,,,0.33,895,weatherlink.com 1.10,2013-06-19 16:16:00,
2013-06-19 12:31:00,75.8,64.0,30.07,NE,48,0.0,5.0,67,0.00,,,0.33,914,weatherlink.com 1.10,2013-06-19 16:31:00,
2013-06-19 12:46:00,76.6,66.0,30.08,South,185,2.0,6.0,69,0.00,,,0.33,932,weatherlink.com 1.10,2013-06-19 16:46:00,
2013-06-19 13:01:00,76.9,66.0,30.07,North,360,0.0,6.0,69,0.00,,,0.33,946,weatherlink.com 1.10,2013-06-19 17:01:00,
2013-06-19 13:16:00,77.1,65.0,30.06,ENE,76,0.0,5.0,66,0.00,,,0.33,960,weatherlink.com 1.10,2013-06-19 17:16:00,
2013-06-19 13:31:00,77.6,66.0,30.06,SSE,159,0.0,4.0,67,0.00,,,0.33,974,weatherlink.com 1.10,2013-06-19 17:31:00,
2013-06-19 13:46:00,78.2,65.0,30.07,WNW,285,2.0,4.0,65,0.00,,,0.33,1035,weatherlink.com 1.10,2013-06-19 17:46:00,
2013-06-19 14:01:00,78.3,66.0,30.06,SW,221,2.0,5.0,67,0.00,,,0.33,1021,weatherlink.com 1.10,2013-06-19 18:01:00,
2013-06-19 14:16:00,78.5,66.0,30.05,SE,136,0.0,4.0,66,0.00,,,0.33,1049,weatherlink.com 1.10,2013-06-19 18:16:00,
2013-06-19 14:31:00,78.6,65.0,30.05,NNE,17,2.0,6.0,64,0.00,,,0.00,976,weatherlink.com 1.10,2013-06-19 18:31:00,
2013-06-19 14:47:00,79.6,67.0,30.04,WNW,283,2.0,4.0,66,0.00,,,0.00,984,weatherlink.com 1.10,2013-06-19 18:47:00,
2013-06-19 15:02:00,80.4,67.0,30.04,South,175,1.0,3.0,63,0.00,,,0.00,1034,weatherlink.com 1.10,2013-06-19 19:02:00,
2013-06-19 15:17:00,79.8,66.0,30.04,NNW,348,1.0,5.0,63,0.00,,,0.00,1090,weatherlink.com 1.10,2013-06-19 19:17:00,
2013-06-19 15:32:00,79.4,68.0,30.04,NW,317,1.0,4.0,69,0.00,,,0.00,1042,weatherlink.com 1.10,2013-06-19 19:32:00,
2013-06-19 15:47:00,80.3,65.0,30.04,SSE,153,1.0,5.0,59,0.00,,,0.00,990,weatherlink.com 1.10,2013-06-19 19:47:00,
2013-06-19 16:02:00,81.4,65.0,30.03,NNW,329,1.0,4.0,57,0.00,,,0.00,967,weatherlink.com 1.10,2013-06-19 20:02:00,
2013-06-19 16:17:00,81.1,65.0,30.03,South,180,0.0,6.0,58,0.00,,,0.00,896,weatherlink.com 1.10,2013-06-19 20:17:00,
2013-06-19 16:32:00,81.5,67.0,30.03,NW,325,1.0,5.0,61,0.00,,,0.00,838,weatherlink.com 1.10,2013-06-19 20:32:00,
2013-06-19 16:47:00,81.3,66.0,30.03,SE,146,0.0,5.0,60,0.00,,,0.00,294,weatherlink.com 1.10,2013-06-19 20:47:00,
2013-06-19 17:02:00,80.1,66.0,30.03,SE,127,0.0,1.0,62,0.00,,,0.00,236,weatherlink.com 1.10,2013-06-19 21:02:00,
2013-06-19 17:17:00,78.9,67.0,30.03,SE,132,0.0,1.0,67,0.00,,,0.00,179,weatherlink.com 1.10,2013-06-19 21:17:00,
2013-06-19 17:32:00,77.7,67.0,30.03,SE,132,0.0,1.0,69,0.00,,,0.00,192,weatherlink.com 1.10,2013-06-19 21:32:00,
2013-06-19 17:47:00,78.3,67.0,30.03,SE,132,0.0,1.0,69,0.00,,,0.00,555,weatherlink.com 1.10,2013-06-19 21:47:00,
2013-06-19 18:02:00,79.7,66.0,30.03,SW,217,0.0,5.0,63,0.00,,,0.00,499,weatherlink.com 1.10,2013-06-19 22:02:00,
2013-06-19 18:17:00,80.5,67.0,30.03,SW,229,0.0,1.0,64,0.00,,,0.00,452,weatherlink.com 1.10,2013-06-19 22:17:00,
2013-06-19 18:32:00,80.7,66.0,30.02,SW,232,0.0,1.0,61,0.00,,,0.00,185,weatherlink.com 1.10,2013-06-19 22:32:00,
2013-06-19 18:47:00,80.7,66.0,30.02,SW,232,0.0,1.0,62,0.00,,,0.00,367,weatherlink.com 1.10,2013-06-19 22:47:00,
2013-06-19 19:02:00,81.1,64.0,30.03,SW,232,0.0,2.0,57,0.00,,,0.00,329,weatherlink.com 1.10,2013-06-19 23:02:00,
2013-06-19 19:17:00,80.9,67.0,30.03,SW,232,0.0,1.0,63,0.00,,,0.00,278,weatherlink.com 1.10,2013-06-19 23:17:00,
2013-06-19 19:32:00,80.4,68.0,30.03,SW,232,0.0,1.0,66,0.00,,,0.00,169,weatherlink.com 1.10,2013-06-19 23:32:00,
2013-06-19 19:47:00,79.2,66.0,30.03,SW,232,0.0,0.0,65,0.00,,,0.00,67,weatherlink.com 1.10,2013-06-19 23:47:00,
2013-06-19 20:02:00,78.1,66.0,30.03,SW,232,0.0,0.0,66,0.00,,,0.00,49,weatherlink.com 1.10,2013-06-20 00:02:00,
2013-06-19 20:17:00,77.3,66.0,30.03,SW,232,0.0,0.0,68,0.00,,,0.00,37,weatherlink.com 1.10,2013-06-20 00:17:00,
2013-06-19 20:32:00,75.9,65.0,30.03,SW,232,0.0,0.0,70,0.00,,,0.00,32,weatherlink.com 1.10,2013-06-20 00:32:00,
2013-06-19 20:47:00,74.6,64.0,30.03,SW,232,0.0,0.0,69,0.00,,,0.00,25,weatherlink.com 1.10,2013-06-20 00:47:00,
2013-06-19 21:02:00,73.4,63.0,30.04,SW,232,0.0,0.0,71,0.00,,,0.00,9,weatherlink.com 1.10,2013-06-20 01:02:00,
2013-06-19 21:17:00,72.2,63.0,30.04,SW,232,0.0,0.0,73,0.00,,,0.00,0,weatherlink.com 1.10,2013-06-20 01:17:00,
2013-06-19 21:32:00,71.0,63.0,30.04,SW,232,0.0,0.0,75,0.00,,,0.00,0,weatherlink.com 1.10,2013-06-20 01:32:00,
2013-06-19 21:47:00,70.0,63.0,30.04,SW,232,0.0,0.0,77,0.00,,,0.00,0,weatherlink.com 1.10,2013-06-20 01:47:00,
2013-06-19 22:02:00,69.1,62.0,30.04,SW,232,0.0,0.0,79,0.00,,,0.00,0,weatherlink.com 1.10,2013-06-20 02:02:00,
2013-06-19 22:18:00,68.3,62.0,30.05,SW,232,0.0,0.0,80,0.00,,,0.00,0,weatherlink.com 1.10,2013-06-20 02:18:00,
2013-06-19 22:33:00,67.7,62.0,30.06,SW,232,0.0,0.0,82,0.00,,,0.00,0,weatherlink.com 1.10,2013-06-20 02:33:00,
2013-06-19 22:48:00,67.1,62.0,30.06,SW,232,0.0,0.0,83,0.00,,,0.00,0,weatherlink.com 1.10,2013-06-20 02:48:00,
2013-06-19 23:03:00,66.7,62.0,30.06,SW,232,0.0,0.0,84,0.00,,,0.00,0,weatherlink.com 1.10,2013-06-20 03:03:00,
2013-06-19 23:18:00,66.2,61.0,30.07,SW,232,0.0,0.0,84,0.00,,,0.00,0,weatherlink.com 1.10,2013-06-20 03:18:00,
2013-06-19 23:33:00,65.8,61.0,30.07,SW,232,0.0,0.0,85,0.00,,,0.00,0,weatherlink.com 1.10,2013-06-20 03:33:00,
2013-06-19 23:48:00,65.6,61.0,30.07,SW,232,0.0,0.0,85,0.00,,,0.00,0,weatherlink.com 1.10,2013-06-20 03:48:00,